Location: Diguira
(13.1838°N, 4.9109°W)
Time: 16:39:36
(UTC+00:00)

Cosmos 158 Rocket - Pass Details

Date: 18 September 2020
Orbit: 699 x 793 km, 74.0° (Epoch: 24 October)

Event Time Altitude Azimuth Distance (km) Brightness Sun altitude
Rises 19:21:49 0° 351° (N) 3,200 7.4 -16.3°
Reaches altitude 10° 19:24:14 10° 353° (N) 2,260 6.6 -16.8°
Maximum altitude 19:29:19 69° 77° (ENE) 783 3.8 -18.1°
Enters shadow 19:34:05 11° 160° (SSE) 2,131 6.0 -19.2°
